Timeline UpdatesTrip UpdatesNews PostsPvt PostsTravel TipsAdmin PostsConv PostsFollowed PostsChat RequestsBlog PostsPNR Posts

Disclaimer
Search
 
 
Thu Jul 24, 2014 11:56:19 ISTHomeTrainsΣChainsAtlasPNRForumGalleryNewsFAQTripsMembersLoginFeedback
No Recent News for this Train
Other Trains in the News **new
Latest...
.
Sun Feb 23, 2014 (12:51AM)
⇐ Return Journey: Train# 59441

59442/Ahmedabad Mumbai Central Passenger

Feb 23 2014 (12:51AM)
Change Departure Station:
Change Arrival Station:
Post a Train Travel TipPost a Train Travel Tip **new
Post a Comment/Question/Picture/VideoPost a Comment/Question/Picture/Video
Pantry/Catering
✕ NO Pantry Car
✕ NO Catering
RSA - Rake Sharing
59439,59440,59441,59442,59461and 59462 all share rakes.
Rake/Coach Composition
3 Sleeper and unreserved coaches.; Sleeper coach from 59076 Bhusaval Surat passenger is attached to this train at Surat.; 2AC coach attached from Surat.
Loco
WCAM-1
News    PNR    Forum    Time-Table    Availability    Fare Chart    Map    Arr/Dep History    Trips    Gallery    ΣChains    X/O    Timeline    
Travel Time: 2h 21m    4 halts    Distance: 72 km    Avg Speed: 30 km/hr
Type: Passenger
Zone: WR/Western
Departs @ 02:14
Platform# 2
SMTWTFS
Saphale/SAH 
Arrives @ 04:35
Platform# 5
SMTWTFS
Mumbai Central/BCT 

4 halts. 25 intermediate Stations between Saphale and Mumbai Central

Show ALL intermediate Stations  Show Old Time-Table

#CodeStation NameX/OArrivesAvgDepartsAvgHaltPFDay#KmSpeedElevZoneAddress
1ADIAhmedabad Junction (12)  -12:40-11-420.81751mWRAhmedabad, Gujarat
2MANManinagar (2)X  12:51-12:53-2m21-417.74850mWRAhmadabad, Gujarat
3VTAVatva (4)  12:59-13:01-2m--1-412.92649mWRDist. Ahmedabad 382445, Gujarat
4GERGeratpur (2)  13:13-13:14-1m--1-407.64044mWRAhmadabad, Gujarat
5BJDBarejadi Nandej (3)X  13:19-13:21-2m--1-404.24442mWRBareja-Barejadi Rd, Gujarat
6KANJKanij (3)X  13:27-13:29-2m--1-399.93439mWRBareja-Barejadi Rd, Gujarat
7NEPNenpur (2)  13:34-13:36-2m--1-397.05035mWRState Highway 3, Gujarat
8MHDMahemdavad Kheda Road (4)X  13:41-13:43-2m--1-392.86237mWRMahemdavad, Gujarat
9GTEGothaj (2)  13:51-13:53-2m--1-384.54632mWRState Highway 3, Gujarat
10NDNadiad Junction (4)  14:05-14:10-5m31-375.34737mWRNadiad, Gujarat
11UTDUtarsanda (4)  14:17-14:19-2m--1-369.84740mWRUttarsanda, Gujarat
12KBRVKanjari Boriyavi Junction (4)  14:26-14:28-2m--1-364.34039mWRKanjari, Gujarat
13ANNDAnand Junction (6)X  14:39-14:44-5m11-356.85244mWRAnand, Gujarat
14VXDVadod (3)  14:52-14:54-2m--1-350.04144mWRAnand District, Gujarat
15ADDAdas Road (4)  15:00-15:02-2m--1-345.94642mWRNational Highway 8, Gujarat
16VDAVasad Junction (3)  15:08-15:10-2m--1-341.35040mWRVasad, Gujarat
17NDRNandesari (2)  15:16-15:18-2m--1-336.34142mWRNandesari, Gujarat
18RNORanoli (2)  15:24-15:26-2m--1-332.12139mWRVadodara District, Gujarat
19BJWBajva (3)X  15:37-15:39-2m--1-328.31938mWRVadodara, Gujarat
20BRCVadodara Junction (7)XO  16:02-16:22-20m31-321.12636mWRVadodara 390005, Gujarat
21VSVishvamitri (4)X  16:29-16:31-2m--1-318.14930mWRVadodara, Gujarat
22MPRMakarpura (4)X  16:38-16:40-2m--1-312.45630mWRVadodara, Gujarat
23VRMVarnama (2)O  16:46-16:48-2m--1-306.82128mWRVadodara, Gujarat
24ITAItola (4)X  16:59-17:01-2m--1-302.83827mWRNational Highway 8 Vadodara, Gujarat
25KSPRKashipura Sarar (2)XO  17:07-17:09-2m--1-299.04726mWRGIDC Industrial Area, Gujarat
26MYGMiyagam Karjan (2)X  17:19-17:21-2m11-291.26029mWRKarjan, Gujarat
27LKDLakodara (4)XO  17:29-17:31-2m--1-283.25426mWRNH 8, Gujarat
28PLJPalej (4)  17:39-17:41-2m--1-276.05729mWRPalej, Gujarat
29VREVarediya (4)  17:48-17:50-2m--1-269.45821mWRNH 8, Gujarat
30NIUNabipur (3)X  17:57-17:59-2m--1-262.66124mWRNabipur, Gujarat
31CVJChavaj (2)X  18:06-18:08-2m--1-255.62520mWRBharuch, Gujarat
32BHBharuch Junction (5)X  18:20-18:25-5m51-250.66219mWRBharuch, Gujarat
33AKVAnkleshwar Junction (4)XO  18:34-18:36-2m21-241.22519mWRAnkleshwar, Gujarat
34PAOPanoli (3)X  19:01-19:03-2m--1-230.91529mWRPanoli, Gujarat
35HATHathuran (2)XO  19:18-19:19-1m--1-227.15232mWRKosamba, Gujarat
36KSBKosamba Junction (3)XO  19:24-19:26-2m--1-222.75830mWRKosamba, Gujarat
37KIMKim (2)O  19:34-19:36-2m--1-214.93018mWRNH 8, Gujarat
38SYNSayan (3)XO  19:56-19:58-2m--1-205.01221mWRSayan Satellite town, Gujarat
39GTXGothangam (2)XO  20:13-20:14-1m--1-202.01819mWRAmroli Sayan Rd, Gujarat
40KSEKosad (2)X  20:26-20:28-2m--1-198.3917mWRSurat, Gujarat
41URNUtran (3)X  20:50-20:52-2m--1-195.22915mWRSurat, Gujarat
42STSurat (4)XO  21:00-21:30-30m31-191.33419mWRSurat 395001, Gujarat
43UDNUdhna Junction (3)  21:37-21:38-1m21-187.33616mWRUdhna 394210, Gujarat
44BHETBhestan (2)X  21:46-21:47-1m21-182.54913mWRSurat, Gujarat
45SCHSachin (3)XO  21:54-21:55-1m--1-176.85011mWRKansad Road Sachin, Gujarat
46MRLMaroli (3)  22:03-22:04-1m--1-170.17215mWRMaroli, Gujarat
47NVSNavsari (3)X  22:11-22:13-2m--1-161.74514mWRNavsari, Gujarat
48GNSTGandhi Smriti (2)O  22:17-22:19-2m--1-158.76516mWRGandhi Smriti Navsari, Gujarat
49VDHVedchha (3)XO  22:24-22:26-2m--1-153.23413mWRNavsari, Gujarat
50ACLAncheli (2)X  22:32-22:33-1m--1-149.95720mWRNavsari, Gujarat
51AMLAmalsad (3)  22:37-22:39-2m--1-146.15612mWRAmalsad, Gujarat
52BIMBilimora Junction (4)O  22:45-22:47-2m--1-140.55411mWRBilimora, Gujarat
53DGIDungri (3)X  22:57-22:58-1m--1-131.52420mWRNH 8, Gujarat
54BLValsad (3)X  23:20-23:30-10m31-122.66415mWRValsad, Gujarat
55PADPardi (3)X  23:40-23:42-2m--1-111.96019mWRValsad, Gujarat
56UVDUdvada (3)  23:48-23:50-2m--1-105.95218mWRUdvada, Gujarat
57VAPIVapi (3)XO  00:01-00:02-1m--2-96.35527mWRVapi, Gujarat
58KEBKarambeli (2)X  00:09-00:11-2m--2-89.94829mWRNational Highway 8, Gujarat
59BLDBhilad (3)X  00:17-00:19-2m--2-85.16933mWRBhilad, Gujarat
60SJNSanjan (3)X  00:29-00:31-2m--2-73.55422mWRSanjan, Gujarat
61UBRUmbargam Road (3)X  00:37-00:39-2m--2-68.16930mWRUmbergaon, Gujarat
62GVDGholvad (4)XO  00:47-00:50-3m--2-59.04814mWRGholvad, Maharashtra
63DRDDahanu Road (5)XO  01:04-01:08-4m--2-47.86212mWRDahanu, Maharashtra
64VGNVangaon (3)XO  01:20-01:23-3m--2-35.57111mWRThane, Maharashtra
65BORBoisar (3)X  01:31-01:34-3m32-26.15217mWRBoisar Tel.no-02525-266626, Maharashtra
66PLGPalghar (3)  01:47-01:50-3m--2-14.84619mWRPalghar, Maharashtra
67KLVKelve Road (3)O  02:01-02:03-2m--2-6.44810mWRThane, Maharashtra
68SAH»Saphale (2)»O  02:11-02:14-3m220.0328mWRThane, Maharashtra
69VRVirar (8)  02:45-02:50-5m--216.3466mWRThane, Maharashtra
70BSRVasai Road (7)  03:01-03:03-2m5224.7617mWRThane-401202, Maharashtra
71BVIMumbai Borivali (8)  03:20-03:25-5m5242.13819mWRMumbai - 400092, Maharashtra
72DDRMumbai Dadar Western (6)  04:02-04:05-3m5265.9126mWRMumbai, Maharashtra
73BCT•Mumbai Central (9)•  04:35--5271.8-3mWRMumbai 400008, Maharashtra
Scroll to Top
Scroll to Bottom